STARLINK-11281, 60996

Orbit data source: Space-Track

STARLINK-11281, 60996 is a payload satellite owned by SpaceX/Seattle (US) in LEO that was launched on Thu, 05 Sep 2024 UTC via an FALCON 9 launch vehicle from the Air Force Eastern Test Range (AFETR). Payload-class satellites include a variety of spacecraft equipped with specific instruments for various scientific and technological missions. These include communications satellites like Starlink; space stations such as the ISS; scientific satellites like the Hubble; Earth observation satellites from companies like Planet Labs, Umbra, and HawkEye 360; GPS; miniature CubeSats for education and research; and military/defense satellites.

Loading next visibility...
Identifier
60996, 2024-158G
Orbit
LEO
Country
Flag of USUS
Related business
Manufacturer
SpaceX/Seattle
Mission
Operational Commercial Communications
Bus & Motor
STARLINK V2MD, Unknown motor
Mass
960 kg wet, ~910 kg dry
Launch date (UTC)
2024-09-05 (1 year ago)
Launch vehicle
FALCON 9
Launch site
Air Force Eastern Test Range (AFETR)
Object type
Payload
Rocket body
Debris
Shape & HBR
Box + 2 Pan, 18.1 m
Radar Cross Section
36.964 m², Large (>1 m²)

Expand to show TLE details & history
Last TLE update: 16 hours ago

TLE from 16 hours ago
0 STARLINK-11281
1 60996U 24158G   26033.42664007 -.00000432  00000-0  13002-5 0  9994
2 60996  53.1584  95.2840 0001833  32.3070 327.8060 15.69717708 82047
Epoch: 2026-02-02T10:14Z
TLE epoch observation values (Epoch: 2026-02-02T10:14:21.702Z)
Latitude
0.00001°
Longitude
169.07149°
Altitude
359.575 km
Speed
7.695 km/s
True Right ascension
06h 21m 08s
True Declination
0° 00' 00"
Sunlit
Object was in full shadow at epoch
Visualization orbit readout
Latitude
Unknown
Longitude
Unknown
Altitude
Unknown
Speed
Unknown
Apparent Right ascension
Unknown
Apparent Declination
Unknown
Sunlit
N/A
Visualization observer readout
Local Sidereal Time
04:37:04
Azimuth
Unknown
Elevation
Unknown
Doppler factor
Unknown
Orbital elements
Apogee altitude
361.201 km
Perigee altitude
358.731 km
Semi-major axis
6,738.103 km
Eccentricity
0.00018
Inclination
53.1584°
RAAN
95.284°
Arg. of periapsis
32.307°
True anomaly
327.79481°
Mean anomaly
327.806°
Eccentric anomaly
327.8004°
Mean motion
3.92407 °/min
Orbital period
91.74 mins
BSTAR
0.0000013002
Loading maneuver chart data...
Computing Atmospheric mass density...
Loading historical data...
Loading historical data...
Loading historical data...
Loading historical data...
Loading historical data...
Loading historical data...
Loading historical data...

Documentation

Showing up to 5 results
|